COSMOS 2251 DEB, 34846

Orbit data source: Space-Track

COSMOS 2251 DEB, 34846 is space debris in LEO originally from a launch on Wed, 16 Jun 1993 UTC launched from the Plesetsk Missile And Space Complex (PKMTR). The debris from Iridium 33, an American commercial communications satellite, has been tracked extensively since its accidental collision with the defunct Russian satellite Cosmos 2251 in 2009. This event, occurring at high speed in low Earth orbit (LEO), generated thousands of pieces of space debris, significantly increasing the risk of further collisions. The Iridium 33 debris cloud has impacted space traffic management and orbital debris mitigation strategies, making it a subject of ongoing study in space situational awareness.

Loading next visibility...
Identifier
34846, 1993-036ABQ
Orbit
LEO
Country
Flag of CISCIS
Related business
Manufacturer
Unknown
Mission
Spacecraft
Bus & Motor
Unknown
Mass
Unknown
Launch date (UTC)
1993-06-16 (33 years ago)
Launch vehicle
Unknown
Launch site
Plesetsk Missile And Space Complex (PKMTR)
Object type
Payload
Rocket body
Debris
Shape & HBR
Unknown shape, 0.1 m
Radar Cross Section
Small (<0.1 m²)

Expand to show TLE details & history
Last TLE update: 10 hours ago

TLE from 10 hours ago
0 COSMOS 2251 DEB
1 34846U 93036ABQ 25355.11801028  .00001740  00000-0  48116-3 0  9992
2 34846  74.0305 246.1072 0026220 311.4658  48.4249 14.47257231875252
Epoch: 2025-12-21T02:49Z
TLE epoch observation values (Epoch: 2025-12-21T02:49:56.088Z)
Latitude
-0.00001°
Longitude
113.68844°
Altitude
724.895 km
Speed
7.5 km/s
True Right ascension
16h 24m 25s
True Declination
0° 00' 00"
Sunlit
Object was in daylight at epoch
Visualization orbit readout
Latitude
Unknown
Longitude
Unknown
Altitude
Unknown
Speed
Unknown
Apparent Right ascension
Unknown
Apparent Declination
Unknown
Sunlit
N/A
Visualization observer readout
Local Sidereal Time
11:42:46
Azimuth
Unknown
Elevation
Unknown
Doppler factor
Unknown
Orbital elements
Apogee altitude
750.876 km
Perigee altitude
713.589 km
Semi-major axis
7,110.37 km
Eccentricity
0.00262
Inclination
74.0305°
RAAN
246.1072°
Arg. of periapsis
311.4658°
True anomaly
48.65016°
Mean anomaly
48.4249°
Eccentric anomaly
48.53748°
Mean motion
3.61997 °/min
Orbital period
99.45 mins
BSTAR
0.00048116
Loading maneuver chart data...
Computing Atmospheric mass density...
Loading historical data...
Loading historical data...
Loading historical data...
Loading historical data...
Loading historical data...
Loading historical data...
Loading historical data...

Documentation

Showing up to 5 results
|